Time,TemperatureF,DewpointF,PressureIn,WindDirection,WindDirectionDegrees,WindSpeedMPH,WindSpeedGustMPH,Humidity,HourlyPrecipIn,Conditions,Clouds,dailyrainin,SoftwareType,DateUTC
2013-07-28 00:00:00,68.9,67.7,29.94,SSW,202,0.0,0.0,96,0.00,,,0.00,Wunderground v.1.15,2013-07-28 04:00:00,
2013-07-28 00:05:00,68.8,67.3,29.94,SSW,201,0.0,0.0,95,0.00,,,0.00,Wunderground v.1.15,2013-07-28 04:05:00,
2013-07-28 00:10:00,68.6,67.1,29.93,SSW,201,0.0,0.0,95,0.00,,,0.00,Wunderground v.1.15,2013-07-28 04:10:00,
2013-07-28 00:15:00,68.6,67.4,29.94,SSW,201,0.0,0.0,96,0.00,,,0.00,Wunderground v.1.15,2013-07-28 04:15:00,
2013-07-28 00:20:00,68.5,67.0,29.94,SSW,201,0.0,0.0,95,0.00,,,0.00,Wunderground v.1.15,2013-07-28 04:20:00,
2013-07-28 00:30:00,68.4,67.2,29.94,SSW,200,0.0,0.0,96,0.00,,,0.00,Wunderground v.1.15,2013-07-28 04:30:00,
2013-07-28 00:35:00,68.5,67.3,29.94,SSW,200,0.0,0.0,96,0.00,,,0.00,Wunderground v.1.15,2013-07-28 04:35:00,
2013-07-28 00:45:00,68.6,67.4,29.94,SSW,200,0.0,0.0,96,0.00,,,0.00,Wunderground v.1.15,2013-07-28 04:45:00,
2013-07-28 00:50:00,68.4,67.2,29.95,SSW,200,0.0,0.0,96,0.00,,,0.00,Wunderground v.1.15,2013-07-28 04:50:00,
2013-07-28 00:55:00,68.3,67.1,29.95,SSW,200,0.0,0.0,96,0.00,,,0.00,Wunderground v.1.15,2013-07-28 04:55:00,
2013-07-28 01:05:00,68.1,66.9,29.94,SW,226,0.0,1.0,96,0.00,,,0.00,Wunderground v.1.15,2013-07-28 05:05:00,
2013-07-28 01:10:00,68.1,66.9,29.94,SW,226,1.0,1.0,96,0.00,,,0.00,Wunderground v.1.15,2013-07-28 05:10:00,
2013-07-28 01:15:00,67.9,66.7,29.94,SW,226,1.0,1.0,96,0.00,,,0.00,Wunderground v.1.15,2013-07-28 05:15:00,
2013-07-28 01:20:00,67.7,66.5,29.94,SW,226,0.0,0.0,96,0.00,,,0.00,Wunderground v.1.15,2013-07-28 05:20:00,
2013-07-28 01:25:00,67.7,66.5,29.93,SW,226,0.0,0.0,96,0.00,,,0.00,Wunderground v.1.15,2013-07-28 05:25:00,
2013-07-28 01:30:00,67.7,66.5,29.94,SW,227,0.0,1.0,96,0.00,,,0.00,Wunderground v.1.15,2013-07-28 05:30:00,
2013-07-28 01:40:00,67.6,66.4,29.94,SW,227,0.0,0.0,96,0.00,,,0.00,Wunderground v.1.15,2013-07-28 05:40:00,
2013-07-28 01:45:00,67.6,66.4,29.94,SW,226,0.0,0.0,96,0.00,,,0.00,Wunderground v.1.15,2013-07-28 05:45:00,
2013-07-28 01:55:00,67.7,66.5,29.94,SW,226,0.0,0.0,96,0.00,,,0.00,Wunderground v.1.15,2013-07-28 05:55:00,
2013-07-28 02:00:00,67.8,66.9,29.94,SW,226,0.0,0.0,97,0.00,,,0.00,Wunderground v.1.15,2013-07-28 06:00:00,
2013-07-28 02:05:00,67.8,66.6,29.94,SW,226,0.0,0.0,96,0.00,,,0.00,Wunderground v.1.15,2013-07-28 06:05:00,
2013-07-28 02:15:00,67.6,66.4,29.94,SW,227,0.0,0.0,96,0.00,,,0.00,Wunderground v.1.15,2013-07-28 06:15:00,
2013-07-28 02:20:00,67.5,66.3,29.94,SW,226,0.0,0.0,96,0.00,,,0.00,Wunderground v.1.15,2013-07-28 06:20:00,
2013-07-28 02:25:00,67.4,66.2,29.94,SW,226,0.0,0.0,96,0.00,,,0.00,Wunderground v.1.15,2013-07-28 06:25:00,
2013-07-28 02:30:00,67.3,66.1,29.94,SW,226,0.0,0.0,96,0.00,,,0.00,Wunderground v.1.15,2013-07-28 06:30:00,
2013-07-28 02:35:00,67.2,66.0,29.94,SW,226,0.0,0.0,96,0.00,,,0.00,Wunderground v.1.15,2013-07-28 06:35:00,
2013-07-28 02:45:00,67.5,66.6,29.93,SW,226,0.0,0.0,97,0.00,,,0.00,Wunderground v.1.15,2013-07-28 06:45:00,
2013-07-28 02:50:00,67.6,66.7,29.93,SW,227,0.0,0.0,97,0.00,,,0.00,Wunderground v.1.15,2013-07-28 06:50:00,
2013-07-28 02:55:00,67.4,66.2,29.93,SW,226,0.0,0.0,96,0.00,,,0.00,Wunderground v.1.15,2013-07-28 06:55:00,
2013-07-28 03:05:00,67.5,66.6,29.93,SW,227,0.0,0.0,97,0.00,,,0.00,Wunderground v.1.15,2013-07-28 07:05:00,
2013-07-28 03:10:00,67.3,66.1,29.93,SW,227,0.0,0.0,96,0.00,,,0.00,Wunderground v.1.15,2013-07-28 07:10:00,
2013-07-28 03:20:00,67.0,65.8,29.93,SW,227,0.0,0.0,96,0.00,,,0.00,Wunderground v.1.15,2013-07-28 07:20:00,
2013-07-28 03:25:00,66.9,65.7,29.94,SW,226,0.0,0.0,96,0.00,,,0.00,Wunderground v.1.15,2013-07-28 07:25:00,
2013-07-28 03:30:00,66.7,65.8,29.94,SW,226,0.0,0.0,97,0.00,,,0.00,Wunderground v.1.15,2013-07-28 07:30:00,
2013-07-28 03:35:00,66.8,65.9,29.94,SW,227,0.0,0.0,97,0.00,,,0.00,Wunderground v.1.15,2013-07-28 07:35:00,
2013-07-28 03:40:00,66.9,66.0,29.94,SW,226,0.0,0.0,97,0.00,,,0.00,Wunderground v.1.15,2013-07-28 07:40:00,
2013-07-28 03:45:00,67.0,66.1,29.93,SW,227,0.0,0.0,97,0.00,,,0.00,Wunderground v.1.15,2013-07-28 07:45:00,
2013-07-28 03:55:00,66.9,66.0,29.93,SW,226,0.0,0.0,97,0.00,,,0.00,Wunderground v.1.15,2013-07-28 07:55:00,
2013-07-28 04:00:00,66.9,66.0,29.93,SW,227,0.0,0.0,97,0.00,,,0.00,Wunderground v.1.15,2013-07-28 08:00:00,
2013-07-28 04:10:00,67.0,66.1,29.93,SW,226,0.0,0.0,97,0.00,,,0.00,Wunderground v.1.15,2013-07-28 08:10:00,
2013-07-28 04:15:00,66.9,66.0,29.93,SW,226,0.0,0.0,97,0.00,,,0.00,Wunderground v.1.15,2013-07-28 08:15:00,
2013-07-28 04:20:00,66.8,65.9,29.93,SW,226,0.0,0.0,97,0.00,,,0.00,Wunderground v.1.15,2013-07-28 08:20:00,
2013-07-28 04:30:00,66.6,65.7,29.94,SW,226,0.0,0.0,97,0.00,,,0.00,Wunderground v.1.15,2013-07-28 08:30:00,
2013-07-28 04:35:00,66.6,65.7,29.93,SW,226,0.0,0.0,97,0.00,,,0.00,Wunderground v.1.15,2013-07-28 08:35:00,
2013-07-28 04:40:00,66.5,65.6,29.93,SW,226,0.0,0.0,97,0.00,,,0.00,Wunderground v.1.15,2013-07-28 08:40:00,
2013-07-28 04:45:00,66.8,65.9,29.93,SW,226,0.0,0.0,97,0.00,,,0.00,Wunderground v.1.15,2013-07-28 08:45:00,
2013-07-28 04:50:00,67.0,66.1,29.93,SW,226,0.0,0.0,97,0.00,,,0.00,Wunderground v.1.15,2013-07-28 08:50:00,
2013-07-28 04:55:00,67.2,66.6,29.94,SW,226,0.0,0.0,98,0.00,,,0.00,Wunderground v.1.15,2013-07-28 08:55:00,
2013-07-28 05:00:00,67.2,66.3,29.93,SW,227,0.0,0.0,97,0.00,,,0.00,Wunderground v.1.15,2013-07-28 09:00:00,
2013-07-28 05:05:00,67.1,66.2,29.94,SW,226,0.0,0.0,97,0.00,,,0.00,Wunderground v.1.15,2013-07-28 09:05:00,
2013-07-28 05:10:00,67.1,66.2,29.94,SW,226,0.0,0.0,97,0.00,,,0.00,Wunderground v.1.15,2013-07-28 09:10:00,
2013-07-28 05:20:00,67.2,66.3,29.94,South,181,0.0,0.0,97,0.00,,,0.00,Wunderground v.1.15,2013-07-28 09:20:00,
2013-07-28 05:25:00,67.5,66.9,29.94,East,96,1.0,1.0,98,0.00,,,0.00,Wunderground v.1.15,2013-07-28 09:25:00,
2013-07-28 05:35:00,67.2,66.3,29.95,East,96,0.0,1.0,97,0.00,,,0.00,Wunderground v.1.15,2013-07-28 09:35:00,
2013-07-28 05:40:00,67.2,66.3,29.95,East,96,0.0,0.0,97,0.00,,,0.00,Wunderground v.1.15,2013-07-28 09:40:00,
2013-07-28 05:45:00,67.3,66.4,29.95,East,96,0.0,0.0,97,0.00,,,0.00,Wunderground v.1.15,2013-07-28 09:45:00,
2013-07-28 05:50:00,67.4,66.5,29.95,East,96,0.0,0.0,97,0.00,,,0.00,Wunderground v.1.15,2013-07-28 09:50:00,
2013-07-28 05:55:00,67.3,66.4,29.95,East,96,0.0,0.0,97,0.00,,,0.00,Wunderground v.1.15,2013-07-28 09:55:00,
2013-07-28 06:00:00,67.3,66.4,29.95,North,1,0.0,0.0,97,0.00,,,0.00,Wunderground v.1.15,2013-07-28 10:00:00,
2013-07-28 06:10:00,67.3,66.4,29.96,North,1,0.0,0.0,97,0.00,,,0.00,Wunderground v.1.15,2013-07-28 10:10:00,
2013-07-28 06:15:00,67.3,66.4,29.96,North,1,0.0,0.0,97,0.00,,,0.00,Wunderground v.1.15,2013-07-28 10:15:00,
2013-07-28 06:20:00,67.7,67.1,29.96,North,1,0.0,0.0,98,0.00,,,0.00,Wunderground v.1.15,2013-07-28 10:20:00,
2013-07-28 06:30:00,68.1,67.2,29.96,North,1,0.0,0.0,97,0.00,,,0.00,Wunderground v.1.15,2013-07-28 10:30:00,
2013-07-28 06:35:00,68.4,67.8,29.96,North,1,0.0,0.0,98,0.00,,,0.00,Wunderground v.1.15,2013-07-28 10:35:00,
2013-07-28 06:45:00,69.2,68.6,29.97,SSE,162,0.0,0.0,98,0.00,,,0.00,Wunderground v.1.15,2013-07-28 10:45:00,
2013-07-28 06:50:00,69.7,69.1,29.97,SSE,153,0.0,1.0,98,0.00,,,0.00,Wunderground v.1.15,2013-07-28 10:50:00,
2013-07-28 06:55:00,70.0,69.4,29.97,SW,224,1.0,1.0,98,0.00,,,0.00,Wunderground v.1.15,2013-07-28 10:55:00,
2013-07-28 07:00:00,70.3,69.7,29.97,SSE,163,1.0,1.0,98,0.00,,,0.00,Wunderground v.1.15,2013-07-28 11:00:00,
2013-07-28 07:05:00,70.5,69.9,29.97,South,188,1.0,1.0,98,0.00,,,0.00,Wunderground v.1.15,2013-07-28 11:05:00,
2013-07-28 07:15:00,71.1,70.2,29.97,SE,146,3.0,5.0,97,0.00,,,0.00,Wunderground v.1.15,2013-07-28 11:15:00,
2013-07-28 07:20:00,71.4,70.5,29.97,SSE,153,3.0,3.0,97,0.00,,,0.00,Wunderground v.1.15,2013-07-28 11:20:00,
2013-07-28 07:25:00,71.6,70.7,29.97,SSE,159,3.0,3.0,97,0.00,,,0.00,Wunderground v.1.15,2013-07-28 11:25:00,
2013-07-28 07:30:00,71.8,70.9,29.97,SE,140,2.0,2.0,97,0.00,,,0.00,Wunderground v.1.15,2013-07-28 11:30:00,
2013-07-28 07:40:00,72.3,71.1,29.96,SSW,195,1.0,2.0,96,0.00,,,0.00,Wunderground v.1.15,2013-07-28 11:40:00,
2013-07-28 07:50:00,73.0,71.5,29.95,SE,145,3.0,4.0,95,0.00,,,0.00,Wunderground v.1.15,2013-07-28 11:50:00,
2013-07-28 07:55:00,73.2,71.4,29.96,SE,143,4.0,5.0,94,0.00,,,0.00,Wunderground v.1.15,2013-07-28 11:55:00,
2013-07-28 08:00:00,73.2,71.4,29.96,SSE,152,4.0,4.0,94,0.00,,,0.00,Wunderground v.1.15,2013-07-28 12:00:00,
2013-07-28 08:05:00,73.3,71.2,29.96,West,271,4.0,4.0,93,0.00,,,0.00,Wunderground v.1.15,2013-07-28 12:05:00,
2013-07-28 08:10:00,73.7,71.2,29.96,SE,139,4.0,4.0,92,0.00,,,0.00,Wunderground v.1.15,2013-07-28 12:10:00,
2013-07-28 08:15:00,74.0,71.2,29.96,South,169,3.0,4.0,91,0.00,,,0.00,Wunderground v.1.15,2013-07-28 12:15:00,
2013-07-28 08:25:00,74.5,71.0,29.96,ESE,117,3.0,4.0,89,0.00,,,0.00,Wunderground v.1.15,2013-07-28 12:25:00,
2013-07-28 08:30:00,74.3,71.2,29.96,SE,145,4.0,6.0,90,0.00,,,0.00,Wunderground v.1.15,2013-07-28 12:30:00,
2013-07-28 08:35:00,74.1,70.6,29.96,SE,127,5.0,6.0,89,0.00,,,0.00,Wunderground v.1.15,2013-07-28 12:35:00,
2013-07-28 08:40:00,74.1,70.6,29.95,SE,127,5.0,7.0,89,0.00,,,0.00,Wunderground v.1.15,2013-07-28 12:40:00,
2013-07-28 08:50:00,73.6,70.5,29.95,SSE,152,5.0,5.0,90,0.00,,,0.00,Wunderground v.1.15,2013-07-28 12:50:00,
2013-07-28 09:00:00,73.6,70.5,29.95,SSE,151,4.0,5.0,90,0.00,,,0.00,Wunderground v.1.15,2013-07-28 13:00:00,
2013-07-28 09:05:00,73.6,70.5,29.96,SE,131,4.0,5.0,90,0.00,,,0.00,Wunderground v.1.15,2013-07-28 13:05:00,
2013-07-28 09:10:00,73.7,70.6,29.96,SSE,156,3.0,3.0,90,0.00,,,0.00,Wunderground v.1.15,2013-07-28 13:10:00,
2013-07-28 09:15:00,73.8,70.7,29.95,SE,138,3.0,6.0,90,0.00,,,0.00,Wunderground v.1.15,2013-07-28 13:15:00,
2013-07-28 09:20:00,73.9,70.8,29.95,SSE,162,4.0,4.0,90,0.00,,,0.00,Wunderground v.1.15,2013-07-28 13:20:00,
2013-07-28 09:30:00,74.4,70.6,29.95,ESE,106,4.0,5.0,88,0.00,,,0.00,Wunderground v.1.15,2013-07-28 13:30:00,
2013-07-28 09:35:00,74.5,70.4,29.95,SSE,156,4.0,5.0,87,0.00,,,0.00,Wunderground v.1.15,2013-07-28 13:35:00,
2013-07-28 09:40:00,74.3,70.8,29.95,SSE,161,4.0,7.0,89,0.00,,,0.00,Wunderground v.1.15,2013-07-28 13:40:00,
2013-07-28 09:45:00,74.2,71.1,29.95,SE,131,5.0,7.0,90,0.00,,,0.00,Wunderground v.1.15,2013-07-28 13:45:00,
2013-07-28 09:50:00,74.6,71.5,29.95,SE,133,5.0,6.0,90,0.00,,,0.00,Wunderground v.1.15,2013-07-28 13:50:00,
2013-07-28 10:00:00,74.6,71.5,29.95,SE,129,6.0,6.0,90,0.00,,,0.00,Wunderground v.1.15,2013-07-28 14:00:00,
2013-07-28 10:10:00,74.4,71.3,29.95,SSE,150,6.0,6.0,90,0.00,,,0.00,Wunderground v.1.15,2013-07-28 14:10:00,
2013-07-28 10:15:00,74.5,71.4,29.94,SE,127,5.0,6.0,90,0.00,,,0.00,Wunderground v.1.15,2013-07-28 14:15:00,
2013-07-28 10:20:00,74.4,71.3,29.95,SE,125,5.0,6.0,90,0.00,,,0.00,Wunderground v.1.15,2013-07-28 14:20:00,
2013-07-28 10:25:00,74.5,71.4,29.94,SSE,151,5.0,6.0,90,0.00,,,0.00,Wunderground v.1.15,2013-07-28 14:25:00,
2013-07-28 10:30:00,74.6,71.5,29.95,SE,145,5.0,6.0,90,0.00,,,0.00,Wunderground v.1.15,2013-07-28 14:30:00,
2013-07-28 10:40:00,74.8,71.3,29.95,ESE,122,5.0,5.0,89,0.00,,,0.00,Wunderground v.1.15,2013-07-28 14:40:00,
2013-07-28 10:45:00,74.5,71.4,29.94,SE,142,6.0,6.0,90,0.00,,,0.00,Wunderground v.1.15,2013-07-28 14:45:00,
2013-07-28 10:50:00,74.4,70.9,29.94,SSE,152,6.0,6.0,89,0.00,,,0.00,Wunderground v.1.15,2013-07-28 14:50:00,
2013-07-28 10:55:00,74.5,71.4,29.94,SE,142,6.0,6.0,90,0.00,,,0.00,Wunderground v.1.15,2013-07-28 14:55:00,
2013-07-28 11:05:00,74.6,71.1,29.94,South,173,6.0,9.0,89,0.00,,,0.00,Wunderground v.1.15,2013-07-28 15:05:00,
2013-07-28 11:10:00,74.7,71.2,29.94,South,172,7.0,7.0,89,0.00,,,0.00,Wunderground v.1.15,2013-07-28 15:10:00,
2013-07-28 11:15:00,74.8,71.0,29.94,SSE,157,7.0,9.0,88,0.00,,,0.00,Wunderground v.1.15,2013-07-28 15:15:00,
2013-07-28 11:20:00,74.9,71.1,29.94,SE,133,7.0,8.0,88,0.00,,,0.00,Wunderground v.1.15,2013-07-28 15:20:00,
2013-07-28 11:25:00,75.2,71.1,29.94,SE,134,8.0,8.0,87,0.00,,,0.00,Wunderground v.1.15,2013-07-28 15:25:00,
2013-07-28 11:30:00,75.3,70.8,29.94,South,174,7.0,7.0,86,0.00,,,0.00,Wunderground v.1.15,2013-07-28 15:30:00,
2013-07-28 11:35:00,75.1,71.0,29.94,SE,127,6.0,7.0,87,0.00,,,0.00,Wunderground v.1.15,2013-07-28 15:35:00,
2013-07-28 11:45:00,74.8,71.0,29.94,South,169,7.0,8.0,88,0.00,,,0.00,Wunderground v.1.15,2013-07-28 15:45:00,
2013-07-28 11:50:00,74.6,70.8,29.94,SSE,150,7.0,7.0,88,0.00,,,0.00,Wunderground v.1.15,2013-07-28 15:50:00,
2013-07-28 12:00:00,74.3,70.8,29.95,SSE,163,8.0,8.0,89,0.00,,,0.00,Wunderground v.1.15,2013-07-28 16:00:00,
2013-07-28 12:05:00,74.2,71.1,29.95,SSW,193,7.0,8.0,90,0.00,,,0.00,Wunderground v.1.15,2013-07-28 16:05:00,
2013-07-28 12:10:00,74.1,71.0,29.95,SE,145,7.0,8.0,90,0.00,,,0.00,Wunderground v.1.15,2013-07-28 16:10:00,
2013-07-28 12:20:00,73.9,70.8,29.95,SE,143,7.0,7.0,90,0.00,,,0.00,Wunderground v.1.15,2013-07-28 16:20:00,
2013-07-28 12:25:00,73.9,70.8,29.95,South,188,6.0,7.0,90,0.00,,,0.00,Wunderground v.1.15,2013-07-28 16:25:00,
2013-07-28 12:30:00,73.9,71.1,29.96,SE,145,6.0,6.0,91,0.00,,,0.00,Wunderground v.1.15,2013-07-28 16:30:00,
2013-07-28 12:35:00,74.0,70.9,29.96,SE,143,5.0,6.0,90,0.00,,,0.00,Wunderground v.1.15,2013-07-28 16:35:00,
2013-07-28 12:40:00,74.0,70.9,29.96,SW,226,5.0,5.0,90,0.00,,,0.00,Wunderground v.1.15,2013-07-28 16:40:00,
2013-07-28 12:45:00,74.2,71.1,29.96,SE,131,6.0,6.0,90,0.00,,,0.00,Wunderground v.1.15,2013-07-28 16:45:00,
2013-07-28 12:55:00,74.2,71.1,29.96,SSW,201,5.0,8.0,90,0.00,,,0.00,Wunderground v.1.15,2013-07-28 16:55:00,
2013-07-28 13:00:00,74.1,71.3,29.95,SW,221,5.0,6.0,91,0.00,,,0.00,Wunderground v.1.15,2013-07-28 17:00:00,
2013-07-28 13:10:00,73.9,71.4,29.95,SSW,203,5.0,5.0,92,0.00,,,0.01,Wunderground v.1.15,2013-07-28 17:10:00,
2013-07-28 13:15:00,73.8,71.3,29.95,SSE,163,5.0,5.0,92,0.00,,,0.01,Wunderground v.1.15,2013-07-28 17:15:00,
2013-07-28 13:20:00,73.8,71.3,29.95,SSW,204,5.0,5.0,92,0.00,,,0.01,Wunderground v.1.15,2013-07-28 17:20:00,
2013-07-28 13:30:00,73.9,71.7,29.94,SSE,156,5.0,8.0,93,0.00,,,0.01,Wunderground v.1.15,2013-07-28 17:30:00,
2013-07-28 13:35:00,73.9,71.4,29.94,SSE,148,6.0,8.0,92,0.00,,,0.01,Wunderground v.1.15,2013-07-28 17:35:00,
2013-07-28 13:40:00,73.9,71.4,29.93,South,169,6.0,7.0,92,0.00,,,0.01,Wunderground v.1.15,2013-07-28 17:40:00,
2013-07-28 13:45:00,74.1,71.9,29.93,SE,145,7.0,7.0,93,0.00,,,0.01,Wunderground v.1.15,2013-07-28 17:45:00,
2013-07-28 13:50:00,74.3,71.8,29.93,SSE,149,6.0,8.0,92,0.00,,,0.01,Wunderground v.1.15,2013-07-28 17:50:00,
2013-07-28 14:00:00,74.7,71.9,29.93,SSE,158,6.0,7.0,91,0.00,,,0.01,Wunderground v.1.15,2013-07-28 18:00:00,
2013-07-28 14:05:00,74.9,71.8,29.94,ESE,120,4.0,11.0,90,0.00,,,0.01,Wunderground v.1.15,2013-07-28 18:05:00,
2013-07-28 14:10:00,75.2,71.7,29.94,South,174,3.0,3.0,89,0.00,,,0.01,Wunderground v.1.15,2013-07-28 18:10:00,
2013-07-28 14:20:00,75.4,71.6,29.93,SSW,212,5.0,5.0,88,0.00,,,0.01,Wunderground v.1.15,2013-07-28 18:20:00,
2013-07-28 14:25:00,75.3,71.5,29.93,SE,139,7.0,8.0,88,0.00,,,0.01,Wunderground v.1.15,2013-07-28 18:25:00,
2013-07-28 14:35:00,75.4,71.6,29.92,SE,136,6.0,9.0,88,0.00,,,0.01,Wunderground v.1.15,2013-07-28 18:35:00,
2013-07-28 14:40:00,75.6,71.8,29.92,SSE,165,5.0,5.0,88,0.00,,,0.01,Wunderground v.1.15,2013-07-28 18:40:00,
2013-07-28 14:45:00,75.7,71.9,29.92,SSW,194,5.0,5.0,88,0.00,,,0.01,Wunderground v.1.15,2013-07-28 18:45:00,
2013-07-28 14:50:00,75.9,72.1,29.92,SSW,200,6.0,6.0,88,0.00,,,0.01,Wunderground v.1.15,2013-07-28 18:50:00,
2013-07-28 14:55:00,76.1,71.9,29.92,SSW,197,6.0,8.0,87,0.00,,,0.01,Wunderground v.1.15,2013-07-28 18:55:00,
2013-07-28 15:00:00,76.0,71.8,29.92,SE,143,5.0,5.0,87,0.00,,,0.01,Wunderground v.1.15,2013-07-28 19:00:00,
2013-07-28 15:10:00,75.9,72.1,29.91,SE,125,7.0,9.0,88,0.00,,,0.01,Wunderground v.1.15,2013-07-28 19:10:00,
2013-07-28 15:15:00,76.0,72.2,29.91,SSW,204,7.0,9.0,88,0.00,,,0.01,Wunderground v.1.15,2013-07-28 19:15:00,
2013-07-28 15:20:00,76.1,71.9,29.91,SSW,197,6.0,7.0,87,0.00,,,0.01,Wunderground v.1.15,2013-07-28 19:20:00,
2013-07-28 15:30:00,75.9,71.4,29.91,SSW,200,8.0,8.0,86,0.00,,,0.01,Wunderground v.1.15,2013-07-28 19:30:00,
2013-07-28 15:35:00,75.9,71.4,29.91,SSE,164,7.0,9.0,86,0.00,,,0.01,Wunderground v.1.15,2013-07-28 19:35:00,
2013-07-28 15:45:00,76.4,71.9,29.90,WSW,240,6.0,7.0,86,0.00,,,0.01,Wunderground v.1.15,2013-07-28 19:45:00,
2013-07-28 15:50:00,76.6,71.7,29.90,SE,142,6.0,11.0,85,0.00,,,0.01,Wunderground v.1.15,2013-07-28 19:50:00,
2013-07-28 15:55:00,76.4,71.6,29.90,South,181,7.0,11.0,85,0.00,,,0.01,Wunderground v.1.15,2013-07-28 19:55:00,
2013-07-28 16:00:00,76.6,72.1,29.91,South,184,7.0,7.0,86,0.00,,,0.01,Wunderground v.1.15,2013-07-28 20:00:00,
2013-07-28 16:05:00,76.6,71.7,29.90,SE,141,6.0,7.0,85,0.00,,,0.01,Wunderground v.1.15,2013-07-28 20:05:00,
2013-07-28 16:15:00,76.7,72.2,29.91,South,172,6.0,7.0,86,0.00,,,0.01,Wunderground v.1.15,2013-07-28 20:15:00,
2013-07-28 16:20:00,76.6,72.4,29.91,ESE,103,6.0,11.0,87,0.00,,,0.01,Wunderground v.1.15,2013-07-28 20:20:00,
2013-07-28 16:25:00,76.9,73.1,29.91,ESE,122,6.0,11.0,88,0.00,,,0.01,Wunderground v.1.15,2013-07-28 20:25:00,
2013-07-28 16:30:00,77.0,73.2,29.91,SSE,164,5.0,5.0,88,0.00,,,0.01,Wunderground v.1.15,2013-07-28 20:30:00,
2013-07-28 16:40:00,77.5,73.3,29.90,South,176,5.0,5.0,87,0.00,,,0.01,Wunderground v.1.15,2013-07-28 20:40:00,
2013-07-28 16:50:00,77.5,73.0,29.90,SE,143,6.0,6.0,86,0.00,,,0.01,Wunderground v.1.15,2013-07-28 20:50:00,
2013-07-28 16:55:00,77.7,72.8,29.91,SSE,160,5.0,7.0,85,0.00,,,0.01,Wunderground v.1.15,2013-07-28 20:55:00,
2013-07-28 17:00:00,78.0,72.8,29.91,SSW,204,4.0,4.0,84,0.00,,,0.01,Wunderground v.1.15,2013-07-28 21:00:00,
2013-07-28 17:05:00,78.1,72.9,29.90,SE,143,5.0,8.0,84,0.00,,,0.01,Wunderground v.1.15,2013-07-28 21:05:00,
2013-07-28 17:10:00,77.5,72.3,29.90,South,172,7.0,8.0,84,0.00,,,0.01,Wunderground v.1.15,2013-07-28 21:10:00,
2013-07-28 17:15:00,77.0,72.1,29.90,SE,145,8.0,11.0,85,0.00,,,0.01,Wunderground v.1.15,2013-07-28 21:15:00,
2013-07-28 17:25:00,76.7,72.2,29.91,SSE,159,7.0,8.0,86,0.00,,,0.01,Wunderground v.1.15,2013-07-28 21:25:00,
2013-07-28 17:30:00,77.0,72.5,29.91,South,172,6.0,6.0,86,0.00,,,0.01,Wunderground v.1.15,2013-07-28 21:30:00,
2013-07-28 17:40:00,77.0,72.1,29.91,SSE,155,5.0,6.0,85,0.00,,,0.01,Wunderground v.1.15,2013-07-28 21:40:00,
2013-07-28 17:45:00,76.8,71.9,29.91,SE,139,5.0,6.0,85,0.00,,,0.01,Wunderground v.1.15,2013-07-28 21:45:00,
2013-07-28 17:50:00,76.6,71.4,29.91,WSW,257,5.0,6.0,84,0.00,,,0.01,Wunderground v.1.15,2013-07-28 21:50:00,
2013-07-28 18:00:00,76.6,71.4,29.92,WSW,249,5.0,5.0,84,0.00,,,0.01,Wunderground v.1.15,2013-07-28 22:00:00,
2013-07-28 18:05:00,76.3,71.1,29.92,SSW,210,4.0,6.0,84,0.00,,,0.01,Wunderground v.1.15,2013-07-28 22:05:00,
2013-07-28 18:10:00,76.2,70.7,29.92,SW,219,5.0,6.0,83,0.00,,,0.01,Wunderground v.1.15,2013-07-28 22:10:00,
2013-07-28 18:15:00,76.3,71.1,29.92,South,186,5.0,6.0,84,0.00,,,0.01,Wunderground v.1.15,2013-07-28 22:15:00,
2013-07-28 18:25:00,75.8,71.0,29.92,ESE,114,3.0,4.0,85,0.00,,,0.01,Wunderground v.1.15,2013-07-28 22:25:00,
2013-07-28 18:30:00,75.5,71.0,29.92,SSW,201,3.0,3.0,86,0.00,,,0.01,Wunderground v.1.15,2013-07-28 22:30:00,
2013-07-28 18:35:00,75.3,71.2,29.93,South,177,3.0,7.0,87,0.00,,,0.01,Wunderground v.1.15,2013-07-28 22:35:00,
2013-07-28 18:40:00,75.2,71.4,29.93,SE,141,3.0,6.0,88,0.00,,,0.01,Wunderground v.1.15,2013-07-28 22:40:00,
2013-07-28 18:50:00,75.1,71.6,29.93,SE,136,3.0,3.0,89,0.00,,,0.01,Wunderground v.1.15,2013-07-28 22:50:00,
2013-07-28 18:55:00,75.1,71.6,29.94,South,183,2.0,3.0,89,0.00,,,0.01,Wunderground v.1.15,2013-07-28 22:55:00,
2013-07-28 19:05:00,74.9,71.8,29.93,SE,131,4.0,5.0,90,0.00,,,0.01,Wunderground v.1.15,2013-07-28 23:05:00,
2013-07-28 19:10:00,74.8,71.7,29.92,SSE,162,5.0,11.0,90,0.00,,,0.01,Wunderground v.1.15,2013-07-28 23:10:00,
2013-07-28 19:15:00,74.6,71.5,29.93,South,186,6.0,11.0,90,0.00,,,0.01,Wunderground v.1.15,2013-07-28 23:15:00,
2013-07-28 19:20:00,74.4,71.6,29.93,WSW,249,4.0,4.0,91,0.00,,,0.01,Wunderground v.1.15,2013-07-28 23:20:00,
2013-07-28 19:25:00,74.1,71.3,29.93,SSE,162,4.0,4.0,91,0.00,,,0.01,Wunderground v.1.15,2013-07-28 23:25:00,
2013-07-28 19:30:00,73.9,71.4,29.94,WSW,257,4.0,4.0,92,0.00,,,0.01,Wunderground v.1.15,2013-07-28 23:30:00,
2013-07-28 19:40:00,73.5,71.4,29.94,SSW,210,2.0,2.0,93,0.00,,,0.01,Wunderground v.1.15,2013-07-28 23:40:00,
2013-07-28 19:45:00,73.4,71.3,29.94,SSE,156,3.0,3.0,93,0.00,,,0.01,Wunderground v.1.15,2013-07-28 23:45:00,
2013-07-28 19:50:00,73.4,71.3,29.94,SSE,161,3.0,4.0,93,0.00,,,0.01,Wunderground v.1.15,2013-07-28 23:50:00,
2013-07-28 20:00:00,73.4,71.3,29.93,SSE,160,3.0,3.0,93,0.00,,,0.02,Wunderground v.1.15,2013-07-29 00:00:00,
2013-07-28 20:05:00,73.3,71.2,29.93,SSE,148,3.0,3.0,93,0.00,,,0.02,Wunderground v.1.15,2013-07-29 00:05:00,
2013-07-28 20:15:00,73.2,71.4,29.93,NNE,15,3.0,4.0,94,0.00,,,0.02,Wunderground v.1.15,2013-07-29 00:15:00,
2013-07-28 20:20:00,73.2,71.4,29.93,South,169,2.0,2.0,94,0.00,,,0.02,Wunderground v.1.15,2013-07-29 00:20:00,
2013-07-28 20:25:00,73.2,71.4,29.93,SSE,156,2.0,4.0,94,0.00,,,0.02,Wunderground v.1.15,2013-07-29 00:25:00,
2013-07-28 20:30:00,73.2,71.4,29.92,East,100,4.0,7.0,94,0.00,,,0.02,Wunderground v.1.15,2013-07-29 00:30:00,
2013-07-28 20:35:00,73.2,71.4,29.94,WNW,300,3.0,7.0,94,0.00,,,0.02,Wunderground v.1.15,2013-07-29 00:35:00,
2013-07-28 20:45:00,73.2,71.4,29.94,SW,221,2.0,2.0,94,0.00,,,0.02,Wunderground v.1.15,2013-07-29 00:45:00,
2013-07-28 20:50:00,73.3,71.5,29.94,SSW,210,2.0,2.0,94,0.00,,,0.03,Wunderground v.1.15,2013-07-29 00:50:00,
2013-07-28 20:55:00,73.3,71.5,29.94,ESE,117,3.0,3.0,94,0.00,,,0.03,Wunderground v.1.15,2013-07-29 00:55:00,
2013-07-28 21:00:00,73.3,71.5,29.94,SSE,156,2.0,2.0,94,0.00,,,0.03,Wunderground v.1.15,2013-07-29 01:00:00,
2013-07-28 21:10:00,73.3,71.5,29.94,SSE,165,2.0,2.0,94,0.10,,,0.05,Wunderground v.1.15,2013-07-29 01:10:00,
2013-07-28 21:20:00,73.3,71.5,29.95,SW,215,1.0,1.0,94,0.13,,,0.07,Wunderground v.1.15,2013-07-29 01:20:00,
2013-07-28 21:25:00,73.1,71.6,29.95,WSW,246,1.0,1.0,95,0.12,,,0.08,Wunderground v.1.15,2013-07-29 01:25:00,
2013-07-28 21:30:00,73.1,71.6,29.96,NW,304,1.0,2.0,95,0.10,,,0.08,Wunderground v.1.15,2013-07-29 01:30:00,
2013-07-28 21:35:00,73.0,71.5,29.96,SE,142,0.0,2.0,95,0.07,,,0.09,Wunderground v.1.15,2013-07-29 01:35:00,
2013-07-28 21:45:00,72.8,71.3,29.96,WSW,243,0.0,0.0,95,0.06,,,0.10,Wunderground v.1.15,2013-07-29 01:45:00,
2013-07-28 22:00:00,72.7,71.5,29.95,SW,235,1.0,1.0,96,0.24,,,0.18,Wunderground v.1.15,2013-07-29 02:00:00,
2013-07-28 22:10:00,72.5,71.3,29.95,South,187,1.0,1.0,96,0.14,,,0.25,Wunderground v.1.15,2013-07-29 02:10:00,
2013-07-28 22:20:00,72.5,71.3,29.96,SSW,192,0.0,0.0,96,0.04,,,0.25,Wunderground v.1.15,2013-07-29 02:20:00,
2013-07-28 22:25:00,72.6,71.7,29.97,West,259,0.0,0.0,97,0.00,,,0.25,Wunderground v.1.15,2013-07-29 02:25:00,
2013-07-28 22:35:00,72.5,71.6,29.96,SSW,201,0.0,0.0,97,0.00,,,0.25,Wunderground v.1.15,2013-07-29 02:35:00,
2013-07-28 22:40:00,72.5,71.6,29.96,SSW,201,0.0,0.0,97,0.00,,,0.25,Wunderground v.1.15,2013-07-29 02:40:00,
2013-07-28 22:50:00,72.6,71.7,29.96,NW,312,0.0,2.0,97,0.28,,,0.30,Wunderground v.1.15,2013-07-29 02:50:00,
2013-07-28 23:00:00,72.4,71.5,29.96,WSW,256,0.0,0.0,97,0.05,,,0.30,Wunderground v.1.15,2013-07-29 03:00:00,
2013-07-28 23:05:00,72.4,71.5,29.96,WSW,243,0.0,0.0,97,0.00,,,0.30,Wunderground v.1.15,2013-07-29 03:05:00,
2013-07-28 23:15:00,72.3,71.4,29.95,WSW,243,0.0,0.0,97,0.00,,,0.30,Wunderground v.1.15,2013-07-29 03:15:00,
2013-07-28 23:25:00,72.3,71.4,29.95,WSW,243,0.0,0.0,97,0.00,,,0.30,Wunderground v.1.15,2013-07-29 03:25:00,
2013-07-28 23:30:00,72.2,71.3,29.95,WSW,243,0.0,0.0,97,0.00,,,0.30,Wunderground v.1.15,2013-07-29 03:30:00,
2013-07-28 23:40:00,72.1,71.2,29.95,SE,130,0.0,1.0,97,0.00,,,0.30,Wunderground v.1.15,2013-07-29 03:40:00,
2013-07-28 23:45:00,72.1,71.2,29.94,ESE,123,1.0,2.0,97,0.00,,,0.30,Wunderground v.1.15,2013-07-29 03:45:00,
2013-07-28 23:50:00,72.0,71.1,29.95,SSE,155,2.0,2.0,97,0.00,,,0.30,Wunderground v.1.15,2013-07-29 03:50:00,